EPKKEPWR

Guest
Details From EPKK - BALICE
To EPWR - STRACHOWICE
Flight Number -
Tags generated
Created
Modified
Stats Distance 127 nm / 235 km
Max Altitude 9,300 ft / 2,835 m
Waypoints 3
Social Downloads 1
Likes 0
Share VATSIM

Download

Looking for another format? Having issues loading an existing format? Contact us
Advertisement - Login to hide

Notes

Basic altitude profile: - Ascent Rate: 2500ft/min - Ascent Speed: 250kts - Cruise Altitude: 35000ft - Cruise Speed: 420kts - Descent Rate: 1500ft/min - Descent Speed: 250kts Options: - Use NATs: yes - Use PACOTS: yes - Use low airways: yes - Use high airways: no

Route

EPKK SABAB EPWR

ID Type Via Altitude (ft/m) Position (lat/lon) Dist (leg/tot) Name
O EPKK APT - 0 / 0 50.07782 / 19.78550 - / 0 nm BALICE
SABAB FIX - 9,300 / 2,835 50.77028 / 17.89917 83 / 83 nm
O EPWR APT - 0 / 0 51.10388 / 16.88189 43 / 126 nm STRACHOWICE

Altitude Profile

Advertisement - Login to hide

EPKK

Details ICAO EPKK (KRK)
Name Saint John Paul II Krakow-Balice
Region Poland
Timezone Europe/Warsaw (UTC+2.0)
Stats Elevation 791 ft / 241 m (AMSL)
Location 50.077800° 19.785500°
Runways 1
Magnetic Variation 5.307° E

METAR

EPKK 230900Z 24016KT 9999 FEW013 07/04 Q1018

Decode

TAF

TAF EPKK 230830Z 2309/2409 26010KT 9999 BKN030 TEMPO 2309/2312 26015G25KT BECMG 2311/2312 27020KT TEMPO 2312/2321 27020G40KT 4000 RA BKN010 TEMPO 2321/2409 29020G40KT 4000 SHRA BKN010 BKN015CB

Decode

Departure Runways

ID Width Length Bearing (true/mag) Surface Threshold Overrun Markings Lighting
07 197 ft / 60 m 8,374 ft / 2,552 m 77.75° / 72.44° CONCRETE 0 ft / 0 m 0 ft / 0 m PREC-APP CENTERLINE EDGE THRESHOLD SALS REIL-OMNI
25 197 ft / 60 m 8,374 ft / 2,552 m 257.77° / 252.47° CONCRETE 778 ft / 237 m 0 ft / 0 m PREC-APP CENTERLINE EDGE THRESHOLD ALSF-I REIL-OMNI

EPWR

Details ICAO EPWR (WRO)
Name Wroclaw-Copernicus Int'l
Region Poland
Timezone Europe/Warsaw (UTC+2.0)
Stats Elevation 403 ft / 123 m (AMSL)
Location 51.103900° 16.881900°
Runways 1
Magnetic Variation 4.722° E

METAR

EPWR 230900Z 26014KT 9999 BKN032 09/03 Q1017

Decode

TAF

TAF EPWR 230830Z 2309/2409 27015G25KT 6000 -RA BKN020 TEMPO 2309/2403 27020G38KT 3000 RA SCT005 OVC014 PROB30 TEMPO 2311/2324 27025G48KT 1500 +RA BKN003 OVC011

Decode

Destination Runways

ID Width Length Bearing (true/mag) Surface Threshold Overrun Markings Lighting
12 148 ft / 45 m 8,220 ft / 2,506 m 115.99° / 111.27° CONCRETE 0 ft / 0 m 108 ft / 33 m PREC-APP EDGE THRESHOLD SALS
30 148 ft / 45 m 8,220 ft / 2,506 m 296.02° / 291.30° CONCRETE 0 ft / 0 m 92 ft / 28 m PREC-APP EDGE THRESHOLD CALVERT

Approach Navaids

Runway Type Ident Frequency Range Bearing (true/mag) Slope Elevation
30 LOC-ILS WRO 110.30 MHz 18 nm / 33 km 296.01° / 291.29 ° - 403 ft / 123 m (AMSL)
30 GS WRO 110.30 MHz 10 nm / 19 km 296.01° / 291.29 ° 3.00° 403 ft / 123 m (AMSL)
30 DME WRO 110.30 MHz 18 nm / 33 km - - 394 ft / 120 m (AMSL)
30 OM OM - - 296.00° / 291.28 ° - 404 ft / 123 m (AMSL)

Popular Alternatives